Location: Marysville Observatory
(48.1092°N, 122.1645°W)
Time: 05:35:23
(UTC-08:00)

ISS - Visible Passes

Search period start: 06 February 2016 00:00
Search period end: 16 February 2016 00:00
Orbit: 399 x 408 km, 51.6° (Epoch: 06 February)

Date Brightness Start Highest point End Pass type
(mag) Time Alt. Az. Time Alt. Az. Time Alt. Az.
06 Feb -3.2 19:03:21 10° W 19:06:36 62° NNW 19:06:56 57° NNE visible
07 Feb -3.4 18:10:45 10° WSW 18:14:00 86° NNW 18:16:34 15° ENE visible
07 Feb -1.1 19:47:34 10° WNW 19:49:12 25° WNW 19:49:12 25° WNW visible
08 Feb -2.7 18:54:50 10° W 18:58:00 46° N 18:58:47 37° NE visible
09 Feb -3.0 18:02:07 10° W 18:05:20 57° NNW 18:08:21 11° ENE visible
09 Feb -1.6 19:38:58 10° WNW 19:40:59 30° NW 19:40:59 30° NW visible
10 Feb -2.6 18:46:15 10° WNW 18:49:23 42° N 18:50:31 29° NE visible
10 Feb 0.1 20:22:52 10° WNW 20:23:09 12° WNW 20:23:09 12° WNW visible
11 Feb -2.7 17:53:29 10° W 17:56:39 45° N 17:59:47 10° ENE visible
11 Feb -2.3 19:30:13 10° WNW 19:32:41 42° NW 19:32:41 42° NW visible
12 Feb -2.8 18:37:32 10° WNW 18:40:41 45° N 18:42:13 25° ENE visible
12 Feb -0.3 20:14:02 10° WNW 20:14:52 17° WNW 20:14:52 17° WNW visible
13 Feb -3.3 19:21:21 10° WNW 19:24:25 74° NNW 19:24:25 74° NNW visible
14 Feb -3.2 18:28:39 10° WNW 18:31:53 58° NNE 18:34:01 19° E visible
14 Feb -0.8 20:05:13 10° WNW 20:06:40 22° W 20:06:40 22° W visible
15 Feb -3.0 19:12:25 10° WNW 19:15:38 60° SSW 19:16:19 46° SSE visible
